TimeEET,TemperatureF,Dew PointF,Humidity,Sea Level PressureIn,VisibilityMPH,Wind Direction,Wind SpeedMPH,Gust SpeedMPH,PrecipitationIn,Events,Conditions,WindDirDegrees,DateUTC
12:20 AM,26.6,23.0,86,30.27,1.6,North,19.6,-,N/A,Snow,Snow Showers,350,2012-01-30 22:20:00
12:50 AM,24.8,21.2,86,30.27,1.6,North,21.9,-,N/A,Snow,Snow Showers,350,2012-01-30 22:50:00
1:20 AM,24.8,19.4,80,30.27,3.7,North,20.7,-,N/A,Snow,Light Snow Showers,350,2012-01-30 23:20:00
1:50 AM,24.8,21.2,86,30.27,1.6,North,19.6,-,N/A,Snow,Snow Showers,350,2012-01-30 23:50:00
2:00 AM,25,23,87,30.29,1,North,19.6,,,Snow,Heavy Snow Showers,350,2012-01-31 00:00:00
2:20 AM,24.8,23.0,93,30.24,1.6,NNW,13.8,-,N/A,Snow,Snow Showers,340,2012-01-31 00:20:00
2:50 AM,24.8,24.8,100,30.24,1.2,NNW,15.0,-,N/A,Snow,Snow Showers,340,2012-01-31 00:50:00
3:20 AM,24.8,24.8,100,30.24,1.2,NNW,15.0,-,N/A,Snow,Snow Showers,340,2012-01-31 01:20:00
3:50 AM,24.8,24.8,100,30.24,1.2,NNW,18.4,-,N/A,Snow,Snow Showers,340,2012-01-31 01:50:00
4:20 AM,24.8,24.8,100,30.24,1.2,North,18.4,-,N/A,Snow,Snow Showers,350,2012-01-31 02:20:00
4:50 AM,24.8,24.8,100,30.24,1.2,NNW,16.1,-,N/A,Snow,Snow Showers,340,2012-01-31 02:50:00
5:20 AM,26.6,24.8,93,30.24,1.2,North,13.8,-,N/A,Snow,Snow Showers,350,2012-01-31 03:20:00
5:50 AM,24.8,24.8,100,30.24,1.2,North,18.4,-,N/A,Snow,Snow Showers,350,2012-01-31 03:50:00
6:20 AM,24.8,23.0,93,30.21,1.2,North,19.6,-,N/A,Snow,Snow Showers,350,2012-01-31 04:20:00
6:50 AM,24.8,21.2,86,30.21,3.7,North,23.0,-,N/A,Snow,Light Snow Showers,350,2012-01-31 04:50:00
7:20 AM,24.8,21.2,86,30.24,3.7,NNW,21.9,-,N/A,Snow,Light Snow Showers,340,2012-01-31 05:20:00
7:50 AM,24.8,19.4,80,30.24,3.7,North,20.7,-,N/A,Snow,Light Snow Showers,350,2012-01-31 05:50:00
8:00 AM,25,20,74,30.26,12,North,20.7,,,Snow,Heavy Snow Showers,350,2012-01-31 06:00:00
8:20 AM,24.8,23.0,93,30.24,2.2,NNW,19.6,-,N/A,Snow,Light Snow Showers,340,2012-01-31 06:20:00
8:50 AM,24.8,19.4,80,30.24,2.5,NNW,20.7,-,N/A,Snow,Light Snow Showers,340,2012-01-31 06:50:00
9:20 AM,24.8,21.2,86,30.24,-9999.0,NNW,19.6,-,N/A,Snow,Light Snow Showers,340,2012-01-31 07:20:00
9:50 AM,26.6,21.2,80,30.24,2.8,NNW,21.9,-,N/A,Snow,Light Snow Showers,340,2012-01-31 07:50:00
10:20 AM,26.6,21.2,80,30.24,3.7,NNW,23.0,-,N/A,Snow,Light Snow Showers,340,2012-01-31 08:20:00
10:50 AM,26.6,23.0,86,30.24,3.7,NNW,24.2,-,N/A,Snow,Light Snow Showers,330,2012-01-31 08:50:00
11:20 AM,26.6,19.4,74,30.21,3.7,North,25.3,-,N/A,Snow,Light Snow Showers,350,2012-01-31 09:20:00
11:50 AM,26.6,21.2,80,30.21,3.7,North,23.0,-,N/A,Snow,Light Snow Showers,350,2012-01-31 09:50:00
12:20 PM,28.4,21.2,74,30.21,4.3,North,24.2,-,N/A,Snow,Light Snow Showers,350,2012-01-31 10:20:00
12:50 PM,28.4,19.4,69,30.21,4.3,North,24.2,-,N/A,Snow,Light Snow Showers,350,2012-01-31 10:50:00
1:20 PM,28.4,21.2,74,30.21,3.7,North,23.0,-,N/A,Snow,Light Snow Showers,350,2012-01-31 11:20:00
1:50 PM,26.6,21.2,80,30.21,3.7,North,20.7,-,N/A,Snow,Light Snow Showers,350,2012-01-31 11:50:00
2:00 PM,27,21,68,30.24,4,North,20.7,,,Snow,Light Snow Showers,350,2012-01-31 12:00:00
2:20 PM,26.6,21.2,80,30.21,5.0,North,20.7,-,N/A,Snow,Light Snow Showers,350,2012-01-31 12:20:00
2:50 PM,26.6,21.2,80,30.21,3.7,NNW,20.7,-,N/A,Snow,Light Snow Showers,340,2012-01-31 12:50:00
3:20 PM,26.6,21.2,80,30.21,3.7,North,23.0,-,N/A,Snow,Light Snow Showers,350,2012-01-31 13:20:00
3:50 PM,26.6,21.2,80,30.21,4.3,North,18.4,-,N/A,Snow,Light Snow Showers,350,2012-01-31 13:50:00
4:20 PM,26.6,21.2,80,30.21,2.5,North,18.4,-,N/A,Snow,Light Snow Showers,350,2012-01-31 14:20:00
4:50 PM,26.6,21.2,80,30.21,1.2,North,15.0,-,N/A,Snow,Snow Showers,350,2012-01-31 14:50:00
5:20 PM,26.6,24.8,93,30.24,1.0,North,19.6,-,N/A,Snow,Snow Showers,350,2012-01-31 15:20:00
5:50 PM,26.6,24.8,93,30.24,1.0,North,19.6,-,N/A,Snow,Snow Showers,360,2012-01-31 15:50:00
6:20 PM,26.6,24.8,93,30.24,1.1,North,18.4,-,N/A,Snow,Snow Showers,350,2012-01-31 16:20:00
6:50 PM,26.6,24.8,93,30.24,2.8,North,20.7,-,N/A,Snow,Snow Showers,350,2012-01-31 16:50:00
7:20 PM,26.6,23.0,86,30.24,1.2,NNW,20.7,-,N/A,Snow,Snow Showers,340,2012-01-31 17:20:00
7:50 PM,26.6,23.0,86,30.24,-9999.0,NNW,21.9,-,N/A,Snow,Snow Showers,340,2012-01-31 17:50:00
8:00 PM,26,22,79,30.27,3,NNW,21.9,,,Snow,Heavy Snow Showers,340,2012-01-31 18:00:00
8:20 PM,26.6,23.0,86,30.24,1.0,NNW,23.0,-,N/A,Snow,Heavy Snow Showers,340,2012-01-31 18:20:00
9:20 PM,26.6,26.6,100,30.27,2.5,NW,10.4,-,N/A,Snow,Snow Showers,310,2012-01-31 19:20:00
9:50 PM,26.6,26.6,100,30.24,2.5,NNW,16.1,-,N/A,Snow,Snow Showers,330,2012-01-31 19:50:00
10:20 PM,26.6,26.6,100,30.24,-9999.0,NNW,19.6,-,N/A,Snow,Snow Showers,340,2012-01-31 20:20:00
10:50 PM,26.6,26.6,100,30.24,1.4,NNW,18.4,-,N/A,Snow,Snow Showers,330,2012-01-31 20:50:00
11:20 PM,28.4,28.4,100,30.24,1.1,NNW,16.1,-,N/A,Snow,Heavy Snow Showers,330,2012-01-31 21:20:00
11:50 PM,28.4,28.4,100,30.24,-9999.0,NNW,16.1,-,N/A,Snow,Snow Showers,340,2012-01-31 21:50:00